Wind_Speed
6 6 6 6 7 7 6 5 5 5 6 6 5 5 5 5 5 5 5 5 5 5 5 5 5 5 5 6 7 7 6 6 6 6 6 6 7 7 7 6 6 6 6 6 7 7 7 7 7
7 7 7 7 7 8 7 6 5 5 6 6 6 6 5 5 5 5 5 5 5 5 6 6 6 6 6 6 7 7 7 7 7 7 7 6 7 6 6 6 6 6 6 7 7 7 7 7 7
8 7 7 7 7 6 6 6 5 5 5 6 6 6 5 5 5 5 6 6 6 6 6 6 6 7 7 7 7 6 6 6 7 7 7 7 7 7 7 7 7 7 6 7 7 7 8 8 8
8 8 8 8 6 6 6 6 6 6 5 6 6 6 6 6 6 6 6 7 7 7 7 7 7 7 7 7 6 7 7 7 7 7 7 7 7 7 7 8 8 7 7 7 7 8 8 8 9
8 9 9 8 7 7 7 7 6 6 6 6 7 7 7 7 7 7 7 7 7 7 7 7 7 7 7 7 7 7 7 7 7 7 8 7 7 8 8 8 8 8 8 8 8 8 9 9 9
8 8 8 8 7 7 7 7 7 7 7 7 6 7 7 7 7 7 7 7 7 7 7 7 7 7 7 7 7 7 7 7 8 8 8 8 8 8 8 8 8 8 8 8 8 8 9 9 10
8 8 8 8 8 7 7 7 7 7 7 6 6 6 7 7 7 7 7 7 7 7 7 7 7 7 7 7 7 7 7 8 8 8 8 8 9 8 8 8 8 8 9 9 9 9 9 9 9
8 8 8 8 8 7 6 7 6 6 6 6 6 5 6 6 6 7 6 6 6 6 6 6 7 7 7 8 7 7 7 7 7 8 8 8 8 8 8 8 9 9 9 9 10 9 10 10 10
8 8 8 7 8 6 6 6 6 5 5 6 6 6 5 6 6 6 6 6 6 6 6 7 7 7 8 8 8 8 8 7 7 8 8 8 8 8 9 9 9 10 10 10 10 10 10 10 11
7 7 7 7 6 6 5 5 5 5 5 6 6 6 6 6 6 6 6 6 6 6 6 6 7 7 7 8 8 8 7 7 8 8 8 8 8 8 9 9 10 10 11 11 11 11 11 10 11
7 7 7 6 6 6 5 5 5 5 6 6 6 6 6 6 6 6 7 7 7 6 6 6 6 7 7 7 7 7 7 8 8 8 8 8 8 8 9 9 10 10 11 11 11 11 11 11 11
7 7 6 6 6 6 6 5 5 6 6 6 6 6 6 6 6 6 7 7 6 6 6 6 6 6 7 7 7 7 8 7 8 8 8 8 8 8 9 9 10 10 10 11 12 12 12 12 12
7 7 6 6 6 6 6 5 5 6 6 6 6 6 6 6 6 6 6 6 6 6 6 6 6 6 7 7 7 8 8 8 8 8 8 8 8 8 9 10 10 11 11 11 11 12 12 12 12
7 7 6 6 6 6 6 6 5 6 6 6 6 6 6 6 6 6 6 6 6 6 6 7 7 7 7 8 7 7 8 8 8 8 9 9 9 9 9 10 10 11 11 12 11 12 12 12 13
7 7 6 6 7 6 6 6 6 6 7 6 6 7 7 7 6 6 6 6 6 6 7 7 7 7 8 8 8 8 9 9 9 9 9 9 9 10 10 11 11 11 12 12 12 13 13 13 13
7 7 6 7 7 7 7 7 6 7 7 7 7 7 7 7 6 6 7 7 7 7 7 7 7 8 8 9 8 8 9 9 9 9 10 10 10 11 11 12 12 12 12 12 13 13 14 14 15
7 7 6 7 7 7 8 7 7 8 8 8 8 8 8 8 7 7 7 7 7 7 7 7 7 8 9 9 9 9 9 9 9 10 11 11 12 12 12 13 13 13 14 14 14 14 14 14 14
8 8 7 7 7 8 8 8 8 8 9 9 8 8 9 9 9 9 9 9 8 8 8 8 8 9 9 9 10 10 10 10 11 11 11 12 12 12 13 13 14 14 15 15 14 14 14 14 14
9 9 9 8 8 9 9 9 9 9 9 9 9 9 9 10 9 9 10 10 10 9 9 9 9 9 9 9 10 11 11 11 12 12 12 13 13 13 14 14 14 15 15 15 15 14 14 14 14
10 10 9 9 10 9 9 9 9 9 9 9 10 10 10 10 10 10 10 11 10 10 10 10 10 10 10 11 11 12 12 12 12 13 13 14 14 14 14 15 15 15 15 15 15 14 14 15 14
10 10 10 10 10 10 10 10 10 10 10 9 9 10 11 11 11 11 11 11 11 10 10 11 11 11 11 12 13 13 12 13 13 13 13 14 14 15 15 15 15 15 15 15 15 15 15 15 15
11 11 11 12 12 11 12 10 10 10 9 9 10 10 11 11 12 12 12 12 12 11 11 12 12 12 12 13 13 13 13 13 14 14 14 14 14 15 15 15 16 16 16 16 15 16 16 16 15
12 13 13 14 13 13 13 12 10 11 11 11 11 12 12 12 12 12 12 13 12 12 12 13 13 13 13 14 14 14 14 15 15 15 15 15 15 15 15 15 16 16 16 16 16 16 17 17 16
13 14 14 15 14 13 13 12 11 11 11 12 12 13 13 13 13 12 13 13 13 13 14 14 14 14 14 14 15 15 15 16 16 16 16 16 16 15 15 15 15 16 17 17 17 17 17 17 16
14 14 15 16 15 14 14 13 12 12 12 13 13 13 13 13 13 13 14 14 14 15 15 15 14 15 15 15 15 16 16 17 17 17 17 16 16 16 15 16 16 16 17 17 17 17 17 17 17
14 15 16 17 16 15 15 14 12 13 13 13 13 13 13 13 13 14 14 15 15 15 15 15 15 16 16 16 16 17 17 17 17 17 17 17 16 16 16 16 16 17 17 16 16 17 17 18 18
15 15 16 17 17 17 16 15 14 14 15 15 14 14 14 14 14 14 15 15 16 16 16 17 17 17 17 18 18 18 17 17 17 17 17 18 17 17 17 17 17 17 17 17 17 18 18 18 18
16 16 16 17 17 16 16 15 14 14 15 16 15 15 15 15 15 15 16 16 16 16 17 18 18 18 19 20 19 19 18 18 18 18 18 18 18 17 18 18 18 18 18 18 18 18 19 19 19
17 17 17 18 18 18 17 15 15 16 15 16 16 16 16 16 16 17 18 17 17 17 18 19 19 20 20 20 20 21 20 19 19 19 19 18 18 18 18 19 19 19 19 19 19 19 19 20 20
18 18 18 18 18 19 19 17 16 17 17 17 17 17 17 18 17 17 18 18 18 18 18 19 19 20 20 20 21 22 21 20 20 21 20 20 20 20 19 20 20 20 20 20 20 20 21 20 20
Wind_Direction
276 272 267 263 266 266 271 265 262 266 265 263 268 272 277 276 276 272 276 277 275 280 280 283 288 292 295 297 292 288 292 296 297 297 298 295 293 292 294 294 294 292 287 279 277 279 278 281 283
274 273 267 267 270 269 267 267 265 263 268 269 269 269 274 274 274 272 274 279 275 281 280 278 283 287 290 293 295 291 290 290 291 291 293 294 292 291 296 292 292 291 284 275 275 276 277 280 283
271 272 268 266 270 270 265 262 266 261 261 261 262 264 270 269 271 272 273 282 279 278 278 278 281 283 283 288 292 290 290 291 289 287 290 288 286 287 289 289 289 290 285 277 273 275 276 276 280
270 270 269 266 268 268 267 264 267 261 262 260 260 263 266 266 268 268 271 277 278 276 275 275 279 280 282 286 285 286 287 289 288 284 287 288 284 285 288 288 285 287 285 280 280 279 278 275 274
269 267 263 262 265 268 270 270 271 270 265 263 262 259 263 266 268 267 269 273 276 276 273 273 276 281 285 288 289 284 284 285 287 285 284 286 285 288 290 290 286 285 287 288 288 285 283 281 278
265 265 266 266 267 268 269 268 265 267 266 265 261 258 265 268 268 268 268 271 273 271 270 272 273 278 284 285 287 284 287 287 287 289 288 287 286 287 290 288 285 284 286 288 288 287 284 282 280
268 273 268 267 267 266 265 265 265 264 262 263 262 260 261 263 266 269 271 271 270 269 270 271 274 277 281 284 286 287 289 289 289 289 288 284 283 285 285 282 281 281 282 284 286 287 284 281 278
271 274 270 268 267 263 258 261 265 259 256 258 262 263 261 263 265 270 270 268 270 270 269 271 273 276 280 282 283 285 287 289 290 290 288 286 285 286 284 281 280 279 279 280 283 285 286 283 280
274 272 272 271 272 265 260 259 259 258 261 263 265 267 268 265 262 265 267 266 269 272 275 276 274 276 279 282 283 284 285 287 288 289 289 288 286 285 284 282 281 281 281 281 283 283 285 284 282
273 274 275 273 269 265 263 261 256 257 262 264 264 264 267 265 262 262 267 271 269 273 278 281 281 280 279 282 284 285 286 287 291 293 290 287 285 283 284 284 283 281 280 281 283 282 281 281 281
277 276 276 269 266 264 261 258 257 255 256 257 259 262 266 263 265 266 266 270 268 268 275 283 285 283 282 283 284 284 285 285 289 293 293 288 287 286 286 286 285 285 284 281 281 280 279 279 280
274 272 267 268 268 261 257 255 255 257 256 256 258 262 263 264 269 273 272 273 268 268 274 284 288 283 281 285 290 287 285 285 286 289 290 291 288 289 288 288 286 286 286 282 279 278 278 278 280
269 266 265 268 270 267 264 257 254 255 257 255 256 258 261 262 266 272 276 279 270 272 278 284 290 287 284 287 292 290 290 292 289 286 288 289 290 291 291 291 293 290 287 285 282 280 280 279 277
271 264 266 270 270 268 264 259 258 255 257 258 258 257 255 260 262 268 275 281 279 283 285 286 287 290 289 290 293 293 293 292 291 289 287 286 290 291 291 293 291 290 289 287 284 283 280 280 276
270 264 263 268 268 264 264 261 259 257 256 256 256 255 254 259 261 266 274 282 283 288 287 286 286 289 290 289 291 294 295 293 289 288 289 289 288 288 288 288 291 290 290 289 285 282 281 279 276
265 266 268 266 263 262 264 262 260 259 260 258 257 257 257 259 262 268 273 278 280 282 286 286 288 289 289 288 289 295 297 294 292 290 290 291 290 289 288 287 288 287 288 288 288 285 281 278 275
270 268 270 267 264 262 263 265 268 267 265 263 260 257 256 259 261 264 269 273 276 278 279 281 285 289 288 286 288 293 299 296 294 292 291 289 290 292 291 290 289 288 288 288 289 290 287 279 275
269 270 276 275 267 264 267 270 270 269 271 268 264 259 257 259 261 264 269 273 274 275 276 279 285 286 286 286 287 290 294 291 292 292 291 290 290 291 290 289 288 289 288 288 290 290 286 281 278
267 270 275 277 275 268 269 274 275 271 268 267 264 261 259 262 264 265 271 274 271 272 276 279 282 284 284 286 285 287 290 289 288 289 291 290 291 291 290 289 287 287 287 287 288 287 285 283 281
267 270 270 270 275 274 274 276 276 277 275 270 267 265 263 264 265 267 270 271 269 272 276 280 283 283 284 284 285 287 286 289 290 289 290 291 292 292 290 288 287 285 286 285 283 285 284 283 281
265 271 273 273 275 277 277 276 275 276 274 273 271 268 267 267 266 266 267 269 271 272 275 280 283 285 285 286 288 288 288 289 289 290 294 293 292 289 287 286 286 286 285 282 281 283 283 283 281
265 268 270 272 274 275 276 278 275 276 274 273 271 269 268 266 266 268 271 272 272 273 275 279 284 287 286 288 289 290 289 290 290 289 291 293 291 290 288 286 287 287 286 285 285 286 284 284 280
265 267 270 272 272 272 274 277 276 274 270 270 270 269 267 266 267 270 274 274 271 271 276 281 283 285 287 288 290 290 290 292 292 290 291 291 289 289 288 288 288 288 288 287 286 287 285 282 277
264 265 267 270 271 271 273 276 276 275 271 270 269 268 268 270 271 273 273 273 271 272 276 280 284 285 286 287 290 291 290 292 291 291 291 290 289 288 287 287 288 289 289 287 288 288 285 281 276
265 265 267 269 270 272 272 274 276 279 274 271 269 268 268 269 270 271 274 274 272 274 276 278 282 284 285 287 291 294 293 292 291 290 290 289 289 288 287 287 288 290 290 288 286 288 288 282 276
267 268 270 272 272 272 271 271 272 276 274 272 270 270 269 269 270 273 277 276 274 275 276 278 282 283 285 289 293 294 294 295 293 291 288 288 287 287 286 287 288 289 289 288 285 285 286 283 276
267 269 271 273 274 273 271 272 271 272 272 270 269 269 271 271 272 276 279 278 275 276 278 279 280 282 284 288 291 291 292 292 291 290 288 287 284 285 284 286 287 287 287 287 287 287 285 282 277
262 267 271 275 276 276 274 274 274 269 267 268 270 269 271 274 278 278 280 280 276 276 279 280 280 283 286 287 286 287 289 290 289 288 287 286 285 285 285 285 286 285 286 286 287 287 284 282 278
260 264 269 271 274 276 275 274 275 274 272 271 273 273 272 274 278 279 280 280 278 277 278 281 282 283 284 285 284 285 287 288 288 288 286 284 284 286 286 284 283 283 284 287 288 286 283 281 279
261 265 267 270 273 274 276 275 274 275 276 276 276 275 275 274 277 279 280 280 278 277 278 279 281 281 282 285 286 285 285 286 287 287 287 285 284 284 284 283 281 281 283 286 286 284 282 280 279
Height
5863 5863 5864 5865 5866 5865 5865 5865 5865 5865 5865 5865 5865 5865 5865 5866 5867 5869 5867 5866 5866 5866 5866 5866 5866 5866 5866 5866 5865 5865 5865 5865 5865 5865 5865 5865 5865 5865 5865 5866 5866 5866 5866 5866 5866 5867 5867 5867 5867
5862 5862 5863 5864 5864 5864 5864 5864 5864 5864 5864 5864 5864 5865 5865 5865 5865 5865 5865 5865 5865 5865 5865 5865 5865 5865 5865 5864 5864 5864 5864 5864 5864 5864 5864 5864 5864 5864 5864 5864 5864 5864 5864 5865 5865 5865 5865 5865 5866
5861 5861 5863 5863 5863 5863 5863 5863 5863 5863 5863 5863 5864 5864 5864 5864 5864 5864 5864 5864 5864 5864 5864 5864 5864 5864 5864 5863 5863 5863 5863 5862 5863 5863 5862 5862 5863 5863 5863 5863 5863 5863 5863 5863 5863 5864 5864 5864 5864
5860 5861 5862 5862 5862 5862 5862 5862 5862 5862 5862 5862 5863 5863 5863 5863 5863 5863 5863 5863 5863 5863 5863 5863 5863 5863 5862 5862 5862 5862 5861 5861 5861 5861 5861 5861 5861 5861 5861 5861 5862 5862 5862 5862 5862 5862 5862 5862 5862
5859 5860 5860 5860 5860 5861 5861 5861 5861 5861 5861 5861 5862 5861 5861 5862 5862 5862 5862 5862 5862 5862 5862 5862 5862 5861 5861 5861 5861 5861 5860 5860 5860 5860 5860 5860 5860 5860 5860 5860 5860 5860 5860 5860 5860 5860 5860 5860 5860
5858 5859 5859 5859 5859 5860 5860 5860 5860 5860 5860 5860 5860 5860 5860 5861 5861 5860 5860 5860 5861 5861 5861 5860 5860 5860 5860 5860 5859 5859 5859 5859 5858 5858 5858 5858 5858 5858 5858 5858 5858 5858 5859 5858 5858 5858 5858 5858 5858
5857 5857 5857 5858 5858 5858 5859 5858 5858 5859 5859 5859 5859 5859 5859 5859 5859 5859 5859 5859 5859 5859 5859 5859 5859 5859 5858 5858 5858 5858 5858 5857 5857 5857 5857 5857 5857 5857 5857 5857 5857 5857 5857 5856 5856 5856 5856 5856 5856
5855 5856 5856 5856 5856 5857 5857 5857 5857 5857 5857 5858 5858 5858 5858 5858 5858 5858 5858 5858 5858 5858 5858 5857 5857 5857 5857 5857 5857 5856 5856 5856 5856 5855 5855 5855 5855 5855 5855 5855 5855 5855 5855 5854 5854 5854 5854 5854 5854
5854 5856 5854 5855 5855 5856 5856 5856 5856 5856 5856 5856 5856 5857 5857 5857 5856 5856 5857 5857 5856 5856 5856 5856 5856 5855 5855 5855 5855 5855 5855 5854 5854 5854 5854 5853 5853 5853 5853 5853 5853 5853 5852 5852 5852 5852 5852 5851 5851
5853 5853 5853 5854 5854 5854 5854 5854 5855 5855 5855 5855 5855 5855 5855 5855 5855 5855 5855 5855 5855 5855 5855 5855 5854 5854 5854 5853 5853 5853 5853 5853 5853 5852 5852 5852 5852 5852 5851 5851 5851 5851 5850 5850 5850 5850 5849 5849 5849
5851 5852 5852 5852 5852 5852 5852 5853 5853 5854 5854 5854 5854 5854 5854 5854 5854 5854 5854 5854 5853 5854 5853 5853 5853 5853 5852 5852 5852 5852 5852 5851 5851 5851 5850 5850 5850 5850 5850 5849 5849 5848 5848 5848 5848 5847 5847 5847 5846
5850 5851 5850 5851 5850 5851 5851 5851 5852 5852 5853 5853 5852 5852 5853 5853 5853 5852 5852 5852 5852 5852 5852 5852 5852 5851 5851 5851 5850 5850 5850 5850 5849 5849 5848 5848 5848 5848 5848 5847 5847 5846 5846 5845 5845 5844 5844 5844 5844
5849 5849 5849 5849 5849 5849 5850 5850 5850 5851 5851 5851 5851 5851 5851 5851 5851 5851 5851 5851 5851 5851 5851 5851 5850 5850 5850 5849 5849 5849 5848 5848 5848 5847 5847 5846 5846 5846 5845 5845 5845 5844 5843 5843 5842 5842 5841 5841 5841
5848 5848 5848 5848 5848 5848 5848 5849 5849 5850 5850 5850 5850 5850 5850 5850 5850 5850 5850 5849 5848 5849 5849 5849 5849 5848 5848 5848 5847 5847 5847 5846 5846 5845 5845 5845 5844 5844 5843 5843 5842 5842 5841 5840 5840 5839 5839 5838 5838
5847 5847 5847 5847 5846 5846 5847 5848 5848 5848 5848 5848 5848 5848 5848 5848 5848 5848 5848 5848 5848 5848 5847 5847 5847 5847 5846 5846 5846 5845 5845 5844 5843 5843 5843 5842 5842 5841 5841 5840 5840 5839 5838 5837 5837 5836 5836 5835 5834
5846 5846 5846 5846 5845 5845 5847 5846 5847 5846 5846 5846 5846 5846 5846 5847 5847 5847 5847 5847 5846 5846 5846 5845 5845 5845 5844 5844 5844 5843 5842 5842 5841 5841 5840 5840 5839 5839 5838 5838 5837 5836 5836 5835 5834 5833 5833 5832 5831
5844 5845 5845 5845 5844 5844 5844 5844 5845 5844 5844 5844 5844 5844 5845 5845 5845 5845 5845 5845 5844 5844 5844 5844 5843 5843 5843 5842 5841 5841 5840 5839 5839 5838 5838 5837 5837 5836 5835 5835 5834 5833 5833 5832 5831 5830 5829 5829 5828
5843 5843 5843 5843 5843 5842 5842 5842 5843 5842 5842 5842 5842 5842 5842 5843 5843 5843 5843 5842 5842 5842 5842 5842 5841 5841 5840 5840 5839 5839 5838 5837 5836 5836 5835 5834 5834 5833 5832 5831 5831 5830 5829 5828 5827 5826 5826 5825 5824
5841 5841 5841 5841 5841 5841 5841 5841 5841 5840 5840 5840 5840 5840 5840 5840 5840 5840 5840 5840 5840 5840 5840 5840 5839 5838 5838 5837 5837 5836 5835 5835 5834 5833 5832 5831 5830 5830 5829 5828 5827 5826 5825 5824 5824 5823 5822 5821 5821
5839 5840 5840 5839 5839 5839 5839 5839 5838 5838 5838 5838 5837 5837 5837 5837 5838 5838 5837 5837 5837 5837 5837 5837 5836 5836 5835 5835 5834 5833 5832 5832 5831 5830 5829 5828 5827 5826 5825 5824 5823 5822 5821 5820 5820 5819 5818 5817 5817
5837 5838 5837 5837 5837 5836 5837 5837 5837 5836 5835 5835 5835 5835 5835 5835 5835 5835 5835 5835 5834 5835 5835 5834 5834 5833 5832 5832 5831 5830 5829 5828 5827 5826 5825 5824 5823 5822 5821 5820 5819 5818 5817 5816 5815 5815 5814 5813 5812
5835 5835 5835 5835 5835 5835 5835 5835 5835 5834 5833 5833 5833 5833 5832 5832 5832 5832 5832 5832 5832 5832 5831 5831 5831 5830 5829 5828 5827 5827 5826 5825 5824 5823 5822 5821 5819 5818 5817 5816 5814 5813 5812 5811 5811 5810 5809 5809 5808
5832 5832 5832 5832 5832 5833 5832 5832 5833 5832 5831 5831 5830 5830 5830 5829 5829 5829 5829 5829 5829 5828 5828 5828 5827 5827 5826 5825 5824 5823 5822 5821 5820 5819 5818 5816 5815 5813 5812 5811 5810 5808 5807 5807 5806 5805 5804 5804 5803
5829 5829 5829 5829 5829 5830 5830 5829 5830 5829 5828 5828 5828 5827 5827 5827 5827 5826 5826 5825 5825 5825 5825 5825 5824 5823 5822 5821 5820 5819 5818 5817 5816 5815 5813 5812 5810 5809 5808 5806 5805 5804 5803 5802 5801 5800 5799 5798 5798
5826 5826 5826 5826 5826 5827 5827 5826 5827 5825 5825 5825 5824 5824 5824 5824 5823 5823 5823 5822 5822 5822 5821 5821 5820 5819 5819 5818 5816 5815 5814 5813 5811 5810 5809 5807 5806 5804 5803 5802 5801 5799 5798 5797 5796 5795 5794 5793 5793
5822 5823 5823 5823 5823 5823 5823 5823 5824 5822 5821 5821 5821 5821 5820 5820 5820 5820 5819 5819 5818 5818 5818 5817 5816 5816 5815 5814 5812 5811 5810 5808 5807 5805 5804 5802 5801 5800 5798 5797 5796 5794 5793 5792 5791 5790 5789 5788 5787
5819 5819 5819 5819 5819 5819 5819 5820 5820 5819 5818 5817 5817 5817 5817 5817 5816 5816 5815 5815 5814 5814 5814 5813 5812 5811 5811 5809 5808 5807 5805 5804 5802 5800 5799 5797 5796 5795 5793 5792 5791 5790 5788 5787 5786 5784 5783 5782 5782
5815 5815 5815 5815 5815 5815 5816 5816 5817 5815 5814 5814 5813 5813 5813 5813 5812 5812 5811 5811 5810 5810 5809 5809 5808 5807 5806 5805 5803 5802 5800 5799 5796 5795 5794 5792 5791 5790 5788 5787 5786 5784 5783 5782 5780 5779 5778 5777 5776
5811 5812 5811 5811 5811 5811 5811 5815 5812 5811 5811 5810 5810 5809 5809 5808 5808 5807 5807 5806 5805 5805 5805 5804 5803 5802 5801 5799 5798 5796 5795 5793 5791 5790 5788 5787 5786 5784 5783 5782 5780 5779 5778 5776 5775 5774 5772 5771 5770
5807 5807 5807 5808 5807 5807 5807 5811 5808 5807 5806 5806 5805 5805 5804 5804 5803 5802 5802 5801 5800 5800 5799 5799 5797 5796 5795 5794 5792 5791 5789 5788 5786 5784 5783 5781 5780 5779 5777 5776 5775 5773 5772 5771 5769 5768 5766 5765 5764